#timestamp,LO_Frequency,Hit,StdDev 
1617996235.3,286047022.8,P
1617996255.2,286047022.4,P
1617996275.9,286047022.8,P
1617996295.7,286047024.9,Y
1617996315.6,286047002.0,P
1617996335.4,286047001.9,N
1617996355.2,286047001.9,N
1617996375.1,286047001.7,N
1617996376.0,286047001.7,N
1617996395.8,286047004.3,N
1617996415.7,286047001.7,N
1617996435.5,286047003.8,N
1617996455.3,286047003.6,N
1617996475.2,286047003.1,N
1617996495.0,286047003.3,N
1617996495.9,286047003.3,N
1617996515.7,286047005.3,N
1617996535.6,286047002.9,N
1617996555.4,286047005.3,N
1617996575.3,286047005.2,N
1617996595.1,286047004.9,N
1617996596.0,286047004.9,N
1617996615.8,286047006.7,N
1617996635.7,286047006.1,N
1617996655.5,286047008.8,N
1617996675.3,286047008.8,N
1617996695.2,286047008.2,N
1617996715.0,286047009.2,N
1617996715.9,286047009.2,N
1617996735.8,286047008.7,N
1617996755.6,286047007.8,N
1617996775.4,286047010.4,N
1617996795.3,286047009.3,N
1617996815.1,286047010.1,N
1617996835.9,286047010.4,Y
1617996855.7,286047005.4,P
1617996875.5,286047005.5,P
1617996895.4,286047007.4,P
1617996915.2,286047006.8,Y
1617996935.0,286047002.2,P
1617996936.0,286047002.2,N
1617996955.8,286047000.2,N
1617996975.6,286047001.9,N
1617996995.5,286047001.6,N
1617997015.3,286047001.8,N
1617997035.1,286047001.3,N
1617997055.9,286047001.4,N
1617997075.7,286047003.1,N
1617997095.5,286047003.5,N
1617997115.4,286047005.9,Y
1617997135.2,286047001.4,P
1617997155.1,286047001.7,P
1617997156.0,286047001.7,P
1617997175.8,286047001.8,Y
1617997195.6,286047002.5,P
1617997215.5,286047004.1,P
1617997235.3,286047005.7,P
1617997255.2,286047003.0,N
1617997275.9,286047004.8,Y
1617997295.7,286047002.0,P
1617997315.6,286047000.8,N
1617997335.4,286047000.1,N
1617997355.2,286047001.4,N
1617997375.1,286047003.1,N
1617997376.0,286047003.1,N
1617997395.8,286047007.6,Y
1617997415.7,286047003.8,P
1617997435.5,286047003.0,P
1617997455.3,286047005.5,P
1617997475.2,286047005.9,Y
1617997495.0,286047002.1,P
1617997495.9,286047002.1,N
1617997515.8,286047001.3,N
1617997535.6,286047001.8,N
1617997555.4,286047002.0,N
1617997575.3,286047001.3,N
1617997595.1,286047003.2,Y
1617997615.8,286047002.8,P
1617997635.7,286047001.7,P
1617997655.5,286047002.2,P
1617997675.4,286047003.2,Y
1617997695.2,286047003.7,P
1617997715.0,286047004.1,P
1617997715.9,286047004.1,P
1617997735.8,286047004.4,Y
1617997755.6,286047001.0,P
1617997775.5,286047000.9,N
1617997795.3,286047000.0,N
1617997815.1,286047001.9,N
1617997835.9,286047001.4,N
1617997855.7,286047003.4,Y
1617997875.5,286047003.1,P
1617997895.4,286047005.8,P
1617997915.2,286047005.6,P
1617997935.1,286047005.2,N
1617997936.0,286047005.2,Y
1617997955.8,286047002.3,P
1617997975.6,286047001.7,N
1617997995.5,286047003.7,P
1617998015.3,286047002.0,N
1617998035.2,286047004.0,Y
1617998055.9,286047000.1,P
1617998075.7,286047000.4,N
1617998095.6,286046999.7,N
1617998115.4,286047001.7,N
1617998135.2,286047002.3,N
1617998155.1,286046999.7,N
1617998156.0,286046999.7,N
1617998175.8,286046999.7,N
1617998195.7,286047002.7,N
1617998215.5,286047002.3,N
1617998235.3,286047002.7,N
1617998255.2,286046999.8,N
1617998275.0,286047001.4,N
1617998275.9,286047001.4,N
1617998295.8,286047002.1,N
1617998315.6,286047004.2,Y
1617998335.4,286047004.0,P
1617998355.3,286047005.6,P
1617998375.1,286047005.4,N
1617998395.8,286047004.6,N
